Flag for Canada Weather past 2 weeks in Paradise, Newfoundland and Labrador, Canada

Now
55 °F

Drizzle. Fog.


Feels Like: 52 °F
Forecast: 56 / 61 °F
Wind: 15 mph from North

Location: St. John's

Current Time: Aug 22, 2014 at 5:32:05 AM

Latest Report: Aug 22, 2014 at 4:30 AM


Visibility: 3 mi

Pressure: 29.91 "Hg

Humidity: 100%

Dew point: 55 °F

Location of ParadiseLocation

Historic Weather in Paradise — Graph

°F

Paradise temperature yesterday

Maximum temperature yesterday: 64 °F (at 1:16 PM)
Minimum temperature yesterday: 57 °F (at 9:30 PM)
Average temperature yesterday: 61 °F

Past Weeks' High & Low Weather Summary

 TemperatureHumidityPressure
High72 °F (Aug 9, 11:30 AM)100% (Aug 7, 4:30 AM)30.22 "Hg (Aug 7, 4:30 AM)
Low54 °F (Aug 10, 2:30 AM)65% (Aug 19, 4:30 PM)29.68 "Hg (Aug 19, 8:30 AM)
Average61 °F93%29.98 "Hg
* Reported Aug 7 4:30 AM — Aug 22 4:30 AM, Paradise, Weather by CustomWeather, © 2014

Note: Actual official high and low records may vary slightly from our data, if they occured in-between our weather recording intervals... More about our weather records

Advertising

Paradise weather history for previous 24 hours

 ConditionsComfort  
Time TempWeatherWind HumidityBarometerVisibility
4:30 AM
Aug 22
55 °FDrizzle. Fog.15 mph100%29.91 "Hg3 mi
3:30 AM55 °FDrizzle. Fog.15 mph100%29.90 "Hg1 mi
3:17 AM55 °FDrizzle. Fog.16 mph100%29.90 "Hg3 mi
2:30 AM57 °FDrizzle. Fog.14 mph94%29.90 "Hg3 mi
1:30 AM57 °FDrizzle. Fog.16 mph100%29.89 "Hg1 mi
12:30 AM57 °FSprinkles. Fog.20 mph100%29.89 "Hg3 mi
11:30 PM
Aug 21
57 °FSprinkles. Fog.21 mph100%29.88 "Hg3 mi
10:30 PM57 °FSprinkles. Fog.21 mph100%29.89 "Hg2 mi
9:30 PM57 °FSprinkles. Fog.16 mph100%29.88 "Hg2 mi
8:30 PM59 °FSprinkles. Low clouds.22 mph94%29.86 "Hg12 mi
7:30 PM59 °FDrizzle. Low clouds.18 mph100%29.85 "Hg12 mi
6:30 PM59 °FDrizzle. Low clouds.18 mph100%29.84 "Hg8 mi
6:15 PM59 °FDrizzle. Fog.20 mph100%29.83 "Hg3 mi
5:30 PM61 °FSprinkles. Low clouds.16 mph94%29.83 "Hg12 mi
4:30 PM61 °FMostly cloudy.15 mph100%29.81 "Hg10 mi
4:19 PM63 °FMore clouds than sun.14 mph94%29.81 "Hg15 mi
3:30 PM64 °FSprinkles. More clouds than sun.14 mph88%29.81 "Hg15 mi
3:19 PM63 °FSprinkles. More clouds than sun.16 mph94%29.80 "Hg15 mi
2:30 PM63 °FDrizzle. Low clouds.16 mph100%29.80 "Hg15 mi
2:20 PM63 °FDrizzle. Low clouds.13 mph94%29.80 "Hg15 mi
1:30 PM64 °FBroken clouds.16 mph88%29.80 "Hg15 mi
1:16 PM64 °FBroken clouds.16 mph94%29.81 "Hg15 mi
12:30 PM63 °FMostly cloudy.13 mph94%29.81 "Hg15 mi
11:30 AM63 °FCloudy.17 mph88%29.81 "Hg15 mi
10:30 AM61 °FMore clouds than sun.15 mph94%29.82 "Hg15 mi
9:30 AM63 °FBroken clouds.12 mph94%29.81 "Hg15 mi
8:30 AM61 °FBroken clouds.13 mph94%29.82 "Hg15 mi
8:18 AM61 °FBroken clouds.13 mph94%29.82 "Hg15 mi
7:30 AM61 °FMostly cloudy.15 mph94%29.80 "Hg15 mi
7:22 AM61 °FMostly cloudy.14 mph94%29.80 "Hg15 mi
6:30 AM61 °FSprinkles. Fog.15 mph94%29.80 "Hg6 mi
5:30 AM61 °FSprinkles. Overcast.17 mph94%29.79 "Hg12 mi
Weather by CustomWeather, © 2014

See weather overviewHow to use our weather pages